"Pseudo-MPEC" for ZTB5FE8

Created 2018 Oct 12 22:18:21 UT using Find_Orb

Click here for an explanation of pseudo-MPECs

 
 Astrometry: 
     ZTB5FE8  C2018 10 10.22572 23 52 24.87 +26 04 58.6          20.1 GVNEOCPG96
     ZTB5FE8  C2018 10 10.23146 23 52 23.33 +26 03 10.4          20.2 GVNEOCPG96
     ZTB5FE8  C2018 10 10.23722 23 52 21.78 +26 01 21.9          20.1 GVNEOCPG96
     ZTB5FE8  C2018 10 10.24298 23 52 20.20 +25 59 34.2          20.1 GVNEOCPG96
     ZTB5FE8  C2018 10 10.37627 23 51 45.12 +25 16 45.0          19.6 GVNEOCPI52
     ZTB5FE8  C2018 10 10.37724 23 51 44.86 +25 16 26.1          20.1 GVNEOCPI52
     ZTB5FE8  C2018 10 10.37820 23 51 44.60 +25 16 07.0          20.2 GVNEOCPI52
     ZTB5FE8  C2018 10 10.37917 23 51 44.37 +25 15 48.0          19.9 GVNEOCPI52
     ZTB5FE8 pC2018 10 10ZCAstrometry5`IIrAG+3e;xP8S]`W01=T5mutcUqx@HhaIsNA^iL01
     ZTB5FE8 KC2018 10 10?h'LLA)6STai!6cdFZ=T?*;h#C/bg(*nUV68FCm^\!O@u4]7iA^DL01
     ZTB5FE8 KC2018 10 10D\-`I5kqD!a7H^*C@XLtxG/[8R7Yj[WLBru1=G0r.Gtm+wjKUSccL01
     ZTB5FE8 KC2018 10 10hU;Y4+nE26qa!h.1a=X[0=XTCgpCt3,h!uV`iUrYMZ[;hl_%8IvpK88
     ZTB5FE8 KC2018 10 10#?8sb2,HOtI$P0n`('3(_/+DhwndmK*_EFr+I!Zr%d\MJ?U7[q@tK88
     ZTB5FE8 KC2018 10 10Z%?gAI8%/7K'wt\1Gredacted;au)5D78oW2*\+,^rM.eR=VXx-,K88
     ZTB5FE8  C2018 10 11Z-u:kd:m.Q+XcrbE#H^PPF;(=K:oY!Owb$kSi_!Qk`/TXKS\tk2JH01
     ZTB5FE8  C2018 10 117',T,!IeVR=W.LnMQ_g;mFfF\:8H))K85aU\nr%ZL%(SVAAKhA85H01
     ZTB5FE8  C2018 10 11W,'YKdbvQ`82287G?OLLKmx9hj(yvcXGNtwPLSnfkZy^qF#gO):QH01
     ZTB5FE8  C2018 10 11l:?\B?X,wZZLWdR13Vmq:?=q,m!GRlaKN^jajBA$nRBF=UdtI\4BH01
     ZTB5FE8 KC2018 10 11.83543623 46 49.02 +16 19 07.6          19.6 GVNEOCPJ95
     ZTB5FE8 KC2018 10 11.83924123 46 48.03 +16 17 33.1          19.6 GVNEOCPJ95
     ZTB5FE8 KC2018 10 11.84993223 46 45.16 +16 13 07.4          20.0 GVNEOCPJ95
     ZTB5FE8  C2018 10 12S`NaOHmuc$G/ek+`Iy8lyVG=*JSrl-Xuseea?$c2yM+#N:B@E(ix246
     ZTB5FE8  C2018 10 12u5wQ]n5aH-./f)p_-ZL`aWd5K`UJiyHd4yoKG*3o7u$W$Oqe/CKJ246
     ZTB5FE8  C2018 10 12Ti_%Po)sn+]\*,b+6u!'JY9N.0mq-uab[@lPIexTZ8.BCxqx%AXr246
     ZTB5FE8 KC2018 10 12I@(li5gPwJiRs.PM0e?-cYausn$nP@:t/'J,*OO6H]gPmRoe92'rA17
     ZTB5FE8 KC2018 10 12NWM!%+o/K/)[kTAO)K?+.,[V8+A,qIXE+G_6pnZxQ%,L.iwMt,40A17
     ZTB5FE8 KC2018 10 12Lo]2f,kffPgKA]@7qrhv$n^ml2gRFQnLFQ_g8PSX@^!W$8)NEOCPA17

Station data:
(246) Klet Observatory-KLENOT  (N48.863293 E14.288100)  Czech Republic.
   1.06-m KLENOT telescope.
(A17) Guidestar Observatory, Weinheim  (N49.545393 E8.681520)  Germany.
(G96) Mt. Lemmon Survey  (N32.442754 W110.788720)  US/Arizona.  Observers B.
   M. Africano, E. J. Christensen, D. C. Fuls, A. R. Gibbs, A. D. Grauer, J.
   A. Johnson, R. A. Kowalski, S. M. Larson, G. J. Leonard, R. L. Seaman, F.
   C. Shelly. 1.5-m reflector + 10K CCD.
(H01) Magdalena Ridge Observatory, Socorro  (N33.984833 W107.189333)  US/New
   Mexico.  Observers W. H. Ryan, E. V. Ryan. Measurer W. H. Ryan. 2.4-m
   f/8.9 reflector + CCD.
(I52) Steward Observatory, Mt. Lemmon Station  (N32.442547 W110.788920)
   US/Arizona.  Observers B. M. Africano, E. J. Christensen, D. C. Fuls, A.
   R. Gibbs, A. D. Grauer, J. A. Johnson, R. A. Kowalski, S. M. Larson, G. J.
   Leonard, R. L. Seaman, F. C. Shelly. 1.0-m reflector + CCD.
(J95) Great Shefford  (N51.474969 W1.447003)  UK.  Observer P. Birtwhistle.
   0.40-m f/6.0 Schmidt-Cassegrain + CCD.
(K88) GINOP-KHK, Piszkéstető  (N47.917622 E19.893600)  Hungary.  Observer K.
   Sárneczky. 0.60-m Schmidt + CCD.
(L01) Višnjan Observatory, Tičan  (N45.290900 E13.749300)  Croatia.  Observer
   K. Korlević. 1.0-m f/2.9 reflector + CCD.

Orbital elements:  ZTB5FE8
   Perihelion 2019 Jan 14.751052 +/- 0.0507 TT = 18:01:30 (JD 2458498.251052)
Epoch 2018 Oct 12.0 TT = JDT 2458403.5   Earth MOID: 0.0288   AutoNEOCP
M 262.29876 +/- 0.07                (J2000 ecliptic)
n   1.03113620 +/- 0.000284         Peri.  298.55995 +/- 0.040
a   0.97034318 +/- 0.000178         Node   199.53112 +/- 0.0016
e   0.2129716 +/- 0.000274          Incl.   19.41819 +/- 0.037
P   0.96/349.12d           H 25.7   G  0.15   U  7.3  
q 0.76368756 +/- 0.000126    Q 1.17699879 +/- 0.000482
From 27 observations 2018 Oct. 10-12; mean residual 0".40
Residuals in arcseconds: 
181010 G96  .24+  .02-    181010 L01  .01+  .23+    181011 J95  .46-  .00     
181010 G96  .22+  .36-    181010 L01  .04+  .14-    181011 J95  .07-  .08-    
181010 G96  .16+  .43-    181010 K88  .31-  .55+    181011 J95  .00   .07-    
181010 G96  .28-  .50+    181010 K88  .10+  .54+    181012 246  .50+  .11-    
181010 I52  .35+  .22-    181010 K88  .35+  1.0+    181012 246  1.5+  .22+    
181010 I52  .12+  .06-    181011 H01  .12+  .13+    181012 246  .31+  1.2+    
181010 I52  .15-  .30-    181011 H01  .26+  .01-    181012 A17  .00   .18-    
181010 I52  .02+  .23-    181011 H01  .17+  .24+    181012 A17  .16-  .25-    
181010 L01  .27+  .62-    181011 H01  .22+  .03+    181012 A17  .48-  .53-    

Ephemerides (geocentric):
Date (UTC) HH   RA              Dec         delta   r     elong  mag " sig PA
---- -- -- --  -------------   -----------  ------ ------ -----  --- ---- ---
2018 10 12 22  23 42 32.521   +08 12 10.14  .04025 1.0354 158.1 19.8  .35 142
2018 10 12 23  23 42 22.426   +07 51 44.15  .04014 1.0352 158.0 19.8  .35 141
2018 10 13 00  23 42 12.298   +07 31 11.27  .04003 1.0351 157.9 19.8  .35 141
2018 10 13 01  23 42 02.138   +07 10 31.54  .03992 1.0349 157.8 19.8  .35 140
2018 10 13 02  23 41 51.946   +06 49 45.00  .03981 1.0348 157.7 19.8  .36 140
2018 10 13 03  23 41 41.720   +06 28 51.69  .03970 1.0347 157.6 19.8  .36 140
2018 10 13 04  23 41 31.463   +06 07 51.65  .03960 1.0345 157.5 19.8  .36 139
2018 10 13 05  23 41 21.172   +05 46 44.93  .03949 1.0344 157.4 19.8  .36 139
2018 10 13 06  23 41 10.848   +05 25 31.58  .03939 1.0343 157.2 19.8  .36 138
2018 10 13 07  23 41 00.491   +05 04 11.64  .03929 1.0341 157.1 19.8  .37 138
2018 10 13 08  23 40 50.101   +04 42 45.18  .03919 1.0340 157.0 19.8  .37 137
2018 10 13 09  23 40 39.676   +04 21 12.25  .03909 1.0338 156.8 19.8  .37 137
2018 10 13 10  23 40 29.218   +03 59 32.91  .03900 1.0337 156.7 19.8  .37 137
2018 10 13 11  23 40 18.727   +03 37 47.22  .03890 1.0336 156.6 19.8  .37 136
2018 10 13 12  23 40 08.201   +03 15 55.24  .03881 1.0334 156.4 19.8  .37 136
2018 10 13 13  23 39 57.640   +02 53 57.05  .03872 1.0333 156.2 19.8  .38 135
2018 10 13 14  23 39 47.046   +02 31 52.71  .03863 1.0331 156.1 19.8  .38 135
2018 10 13 15  23 39 36.416   +02 09 42.29  .03854 1.0330 155.9 19.8  .38 134
2018 10 13 16  23 39 25.752   +01 47 25.88  .03845 1.0329 155.7 19.8  .38 133
2018 10 13 17  23 39 15.052   +01 25 03.54  .03837 1.0327 155.5 19.8  .38 133
2018 10 13 18  23 39 04.318   +01 02 35.36  .03829 1.0326 155.3 19.8  .38 132
2018 10 13 19  23 38 53.548   +00 40 01.43  .03820 1.0325 155.1 19.8  .38 132
2018 10 13 20  23 38 42.743   +00 17 21.82  .03812 1.0323 154.9 19.8  .38 131
2018 10 13 21  23 38 31.901   -00 05 23.36  .03805 1.0322 154.7 19.8  .38 131
2018 10 13 22  23 38 21.024   -00 28 14.04  .03797 1.0320 154.5 19.8  .38 130
2018 10 13 23  23 38 10.110   -00 51 10.11  .03790 1.0319 154.3 19.8  .38 129
2018 10 14 00  23 37 59.161   -01 14 11.48  .03782 1.0318 154.1 19.8  .39 129
2018 10 14 01  23 37 48.174   -01 37 18.05  .03775 1.0316 153.9 19.8  .39 128
2018 10 14 02  23 37 37.151   -02 00 29.72  .03768 1.0315 153.6 19.8  .39 127
2018 10 14 03  23 37 26.091   -02 23 46.37  .03762 1.0313 153.4 19.8  .39 127
2018 10 14 04  23 37 14.994   -02 47 07.91  .03755 1.0312 153.2 19.8  .39 126
2018 10 14 05  23 37 03.859   -03 10 34.23  .03749 1.0311 152.9 19.8  .39 125
2018 10 14 06  23 36 52.687   -03 34 05.20  .03743 1.0309 152.7 19.8  .39 125
2018 10 14 07  23 36 41.477   -03 57 40.71  .03737 1.0308 152.4 19.8  .39 124
2018 10 14 08  23 36 30.230   -04 21 20.66  .03731 1.0306 152.2 19.8  .39 123
2018 10 14 09  23 36 18.944   -04 45 04.90  .03725 1.0305 151.9 19.8  .39 122
2018 10 14 10  23 36 07.619   -05 08 53.34  .03720 1.0304 151.6 19.9  .39 121
2018 10 14 11  23 35 56.256   -05 32 45.83  .03714 1.0302 151.4 19.9  .39 121
2018 10 14 12  23 35 44.854   -05 56 42.25  .03709 1.0301 151.1 19.9  .39 120
2018 10 14 13  23 35 33.413   -06 20 42.47  .03704 1.0299 150.8 19.9  .39 119
2018 10 14 14  23 35 21.933   -06 44 46.36  .03700 1.0298 150.5 19.9  .39 118
2018 10 14 15  23 35 10.414   -07 08 53.79  .03695 1.0297 150.3 19.9  .38 117
2018 10 14 16  23 34 58.854   -07 33 04.62  .03691 1.0295 150.0 19.9  .38 116
2018 10 14 17  23 34 47.255   -07 57 18.71  .03687 1.0294 149.7 19.9  .38 115
2018 10 14 18  23 34 35.616   -08 21 35.92  .03683 1.0292 149.4 19.9  .38 114
2018 10 14 19  23 34 23.936   -08 45 56.11  .03679 1.0291 149.1 19.9  .38 113
2018 10 14 20  23 34 12.216   -09 10 19.14  .03675 1.0290 148.8 19.9  .38 112
2018 10 14 21  23 34 00.454   -09 34 44.86  .03672 1.0288 148.5 19.9  .38 111